Temp
11 10 10 10 10 10 10 10 10 10 10 10 10 11 13 15 17 18 19 20 20 20 20 20 21 21 21 21 22 22 22 22 21 21 22 22 23 23 23 23 24 24 24 24 24 24 24 24 25 26 26 25 25 25 25 25 25 26 27 26 24 24 25 26 27 26 26 25 25 25 26 26 25 25 25 25 25 25 25 24 21 20 19 19 19 19 19 19
11 10 10 10 10 10 10 10 10 10 10 10 11 12 13 15 17 18 19 19 20 20 20 20 21 21 21 21 22 22 22 22 21 21 22 23 23 23 23 23 24 24 24 24 24 24 24 24 25 25 26 25 25 25 25 25 25 27 27 25 24 25 25 25 26 26 26 26 25 25 25 26 26 25 25 25 25 25 25 23 21 20 18 18 18 18 19 18
10 10 10 10 10 10 10 9 9 10 10 11 12 13 14 15 17 18 19 19 20 20 20 20 20 21 21 21 21 22 22 22 22 22 22 22 23 24 23 23 24 24 24 24 24 24 24 24 24 25 26 25 26 25 25 26 26 26 26 26 25 25 25 24 25 25 26 26 26 26 25 26 25 25 25 25 25 25 25 24 22 22 19 17 17 17 18 18
10 10 10 9 9 9 9 9 9 9 10 11 13 14 15 16 17 18 19 19 19 19 20 20 20 21 21 21 21 21 22 22 22 22 22 22 23 24 23 23 24 24 24 24 24 25 24 24 24 25 26 25 25 25 25 26 26 26 26 26 25 25 26 25 24 25 25 26 26 26 26 26 25 24 25 25 25 24 25 25 24 25 21 17 17 16 17 17
10 10 10 9 9 9 9 9 9 9 10 12 14 15 16 16 17 18 19 19 19 19 19 20 21 21 21 21 21 21 22 23 22 21 22 22 23 23 23 23 24 24 24 24 25 25 25 25 25 26 26 25 25 25 26 26 26 26 25 25 25 25 25 24 24 24 24 25 26 26 26 26 25 25 25 25 25 25 25 25 26 26 22 18 17 16 16 16
10 10 10 10 9 9 9 9 9 9 10 12 13 15 16 16 17 18 18 18 19 19 19 20 20 21 21 21 21 21 22 23 21 21 22 22 23 23 23 23 24 24 24 24 25 25 25 25 25 26 26 26 25 25 26 25 26 26 25 24 24 25 25 24 24 24 24 26 26 25 25 25 25 25 25 25 26 26 25 25 26 25 21 18 17 16 16 16
10 10 10 10 9 9 9 9 9 9 10 11 13 14 15 16 17 18 18 18 18 18 19 20 20 20 20 20 21 21 21 22 21 21 22 22 23 23 23 23 24 24 24 25 24 25 25 25 25 26 26 26 25 25 25 25 26 26 25 24 24 24 24 23 23 23 24 25 25 24 24 25 26 25 25 25 26 26 24 23 23 22 20 18 17 16 16 16
10 9 9 9 9 8 8 9 9 9 9 10 11 13 14 15 16 17 18 18 18 18 19 19 20 20 20 20 21 21 21 21 20 21 22 22 22 23 23 23 23 24 24 24 24 24 24 25 25 25 26 26 25 26 25 26 25 25 25 24 23 23 23 23 23 23 24 24 24 24 25 25 25 25 25 25 26 26 23 22 22 20 19 19 18 17 16 15
10 9 9 9 8 8 8 8 9 9 9 9 10 12 13 14 15 16 17 18 18 18 19 19 19 20 20 20 20 21 21 20 20 21 21 22 22 23 23 23 23 24 24 24 24 24 24 25 25 26 26 26 26 25 25 26 25 25 25 24 24 23 23 23 23 23 24 23 24 25 25 25 24 24 25 26 26 25 24 24 23 21 20 20 18 17 16 16
9 9 9 9 8 8 8 8 8 8 9 9 10 11 12 14 15 16 17 17 18 18 18 19 19 19 20 20 20 22 21 20 20 21 21 22 22 23 23 23 24 23 23 24 24 24 24 24 24 24 26 26 26 24 25 25 25 24 24 24 24 23 23 23 23 23 24 23 24 24 25 24 24 24 25 26 26 24 24 24 22 22 22 20 19 18 17 16
9 9 9 8 8 8 8 8 8 8 9 9 9 10 12 13 14 15 16 17 18 18 18 19 19 19 20 20 21 22 20 20 21 21 21 22 22 23 23 23 23 23 24 24 23 24 24 24 23 24 25 26 25 24 24 25 24 24 24 24 23 23 23 23 23 23 24 24 23 24 24 24 23 24 25 26 25 23 25 25 23 23 23 21 20 19 18 17
9 9 9 8 8 8 8 8 8 8 8 8 9 10 11 13 14 15 16 17 17 18 18 18 19 19 19 20 21 21 20 21 21 21 21 22 23 23 23 23 23 24 24 23 23 24 24 24 24 25 25 25 25 24 24 24 24 24 24 24 23 23 23 23 24 23 24 24 23 24 24 24 23 24 26 25 25 24 24 25 23 24 23 22 21 20 19 18
9 9 8 8 8 8 8 8 8 8 8 9 9 10 11 13 14 15 16 16 17 18 18 18 18 19 20 21 21 20 20 21 21 21 22 22 23 23 23 23 24 24 24 24 24 24 25 25 25 25 24 24 24 23 24 24 24 24 24 24 23 22 23 23 23 23 23 23 23 23 23 24 24 24 25 24 24 25 24 24 24 24 23 23 22 21 21 19
9 9 8 8 7 8 8 8 8 8 9 9 9 10 12 13 14 15 16 16 17 17 18 18 18 19 20 21 20 20 20 21 21 21 22 22 22 23 23 23 24 24 24 24 25 25 25 25 25 24 24 24 24 23 24 24 24 24 24 24 23 22 22 23 23 23 24 23 23 24 22 23 26 25 24 23 24 25 25 25 24 24 23 23 23 22 22 20
9 8 8 8 8 8 8 8 8 9 9 9 10 11 12 13 14 15 16 16 17 17 18 18 19 19 21 21 19 20 20 20 21 21 22 22 22 22 23 23 23 24 24 24 25 25 25 25 25 24 23 23 24 24 24 23 24 24 23 22 22 22 22 23 23 23 24 23 23 23 22 23 25 25 23 22 23 25 25 25 24 24 24 23 23 22 22 22
8 8 8 8 8 8 8 8 9 9 9 10 11 12 13 14 15 15 16 16 17 17 18 18 18 19 21 21 19 19 20 20 21 21 21 22 22 23 23 23 23 23 24 24 24 25 25 25 24 23 24 24 24 24 23 22 23 23 22 21 22 22 22 22 23 22 23 23 23 23 22 24 25 24 23 23 23 24 25 25 25 25 25 24 24 22 22 22
8 8 8 8 8 8 8 9 9 10 10 11 12 13 13 14 15 15 16 16 17 17 18 18 18 20 20 19 19 20 20 20 21 21 21 22 22 23 23 23 23 23 23 24 24 24 24 24 22 22 24 24 23 24 22 21 21 22 22 22 22 22 21 22 23 22 22 23 23 23 22 23 25 24 24 24 24 24 25 25 25 25 25 25 24 23 23 22
8 8 8 8 8 9 9 9 9 10 11 12 13 14 14 15 15 15 15 16 17 18 18 18 18 20 20 19 19 20 20 20 20 21 21 22 22 22 23 23 22 22 23 23 24 24 23 23 23 23 23 23 23 23 21 21 21 21 21 21 22 22 22 23 23 22 22 22 22 22 22 22 23 23 23 23 24 24 25 25 26 25 25 25 25 24 23 22
9 9 8 9 9 9 9 9 10 11 12 13 13 14 14 15 15 16 16 16 17 19 19 19 19 20 20 19 19 19 19 20 20 21 21 22 22 22 23 23 22 22 23 23 23 23 23 23 22 22 22 23 23 23 23 23 23 23 22 22 22 22 22 22 22 21 21 22 22 22 22 22 22 23 23 23 23 23 24 24 24 24 24 24 25 25 24 23
9 9 9 9 9 9 9 10 11 11 12 13 13 14 15 16 17 17 16 16 18 19 19 19 20 19 19 18 18 18 19 20 20 20 21 21 22 22 22 23 22 22 22 22 23 22 22 22 22 22 22 23 24 24 24 24 23 24 23 22 22 22 21 21 21 21 21 22 23 23 22 22 22 22 22 23 23 23 23 23 23 23 23 23 24 24 24 24
10 10 10 10 10 9 9 10 11 12 12 13 13 14 16 17 18 17 17 17 18 18 19 19 19 19 19 18 17 18 19 20 20 20 20 21 21 22 22 22 22 22 21 22 22 22 22 22 22 23 23 24 24 24 24 24 24 24 23 22 22 22 21 21 21 21 21 22 22 22 22 22 21 21 22 22 23 23 24 24 24 23 23 23 23 24 24 23
10 10 10 10 10 10 10 11 11 12 12 13 13 14 15 15 16 16 17 19 18 17 18 19 18 18 18 18 18 19 20 20 19 19 20 21 21 21 22 21 21 21 21 21 21 21 21 21 22 23 23 23 23 24 24 24 24 23 23 22 22 21 21 21 21 21 21 22 22 22 21 21 21 21 22 22 22 23 24 24 24 24 23 23 23 23 23 23
11 11 10 11 10 10 10 11 12 12 13 13 13 14 14 15 15 15 17 20 19 17 18 19 19 18 18 18 19 19 20 20 20 19 19 20 21 21 21 21 21 21 21 21 21 20 20 21 22 22 23 24 24 23 24 23 23 23 22 21 21 21 21 21 21 21 21 21 21 21 21 21 21 21 21 22 21 22 23 23 24 24 24 24 24 23 23 23
11 11 11 11 11 10 11 11 12 13 13 13 13 14 15 15 15 15 17 20 20 18 18 19 19 19 18 19 19 19 20 20 20 19 19 20 21 21 21 21 21 21 21 22 22 21 21 21 21 22 23 24 23 23 23 23 22 22 22 22 22 22 21 21 21 22 21 21 20 21 21 21 22 23 23 23 22 23 23 22 23 23 23 23 23 23 23 23
11 11 11 11 11 11 11 12 12 13 13 13 14 15 15 15 15 16 18 20 19 18 17 18 19 20 20 19 19 20 20 20 19 19 19 20 21 21 21 22 21 21 21 21 21 21 21 20 20 22 23 23 23 23 23 23 21 21 22 21 22 22 22 21 22 22 21 21 20 20 20 21 23 23 24 24 24 25 25 24 24 24 23 23 23 23 23 22
11 12 12 11 11 11 11 12 12 13 13 13 14 15 15 16 16 16 18 19 18 18 17 18 19 20 20 19 18 20 21 20 18 17 19 20 20 21 21 21 21 21 21 21 21 20 20 20 20 22 22 22 23 22 22 22 21 21 20 20 21 22 22 21 21 21 21 20 20 20 20 20 21 22 24 24 25 25 26 26 26 25 24 25 24 23 23 23
11 12 12 12 11 11 11 12 12 13 14 13 14 15 15 16 16 16 18 17 17 18 17 17 18 20 20 19 19 20 20 19 18 17 18 19 19 20 21 21 21 21 21 21 21 20 19 20 20 21 21 21 22 21 21 21 21 21 19 19 22 22 22 21 21 21 20 20 19 20 20 20 20 22 23 24 24 25 26 27 27 26 26 26 24 23 23 24
10 11 12 12 12 11 11 12 12 13 13 13 14 15 15 16 15 17 18 16 17 19 18 17 18 19 19 18 19 20 18 19 19 18 17 19 19 20 21 21 21 22 21 21 20 19 18 20 21 21 21 21 21 20 19 20 22 20 19 20 21 22 21 21 21 20 19 19 20 19 20 20 20 21 22 23 24 25 26 27 27 27 26 25 23 23 24 24
10 11 11 11 12 11 11 11 11 12 13 13 14 14 15 15 16 18 18 17 18 19 18 17 17 18 18 18 18 18 18 18 19 17 17 19 19 20 21 20 21 22 20 20 20 19 18 18 19 20 21 21 19 17 17 20 22 20 19 20 21 20 20 20 20 20 19 19 20 20 20 20 20 21 21 22 23 24 26 27 26 25 24 24 23 23 23 23
10 11 11 11 11 11 11 11 11 12 12 13 13 14 15 15 16 17 16 17 20 18 17 17 17 17 18 18 18 18 18 17 17 17 18 19 19 19 20 19 21 21 19 19 19 17 17 16 16 18 20 19 18 17 17 18 19 19 19 20 20 20 20 20 19 19 20 19 19 19 19 20 20 21 22 22 23 25 27 27 25 24 24 24 23 23 23 22
9 10 11 11 11 11 11 11 11 12 12 13 13 13 15 16 17 16 15 18 20 17 16 16 16 17 17 17 17 17 18 17 17 18 18 18 19 19 19 19 20 19 18 19 18 16 17 18 17 17 17 17 18 18 17 18 18 19 20 20 20 20 19 19 18 18 19 20 19 18 18 19 19 21 22 22 23 25 26 26 26 25 25 24 24 23 22 22
9 10 10 10 10 11 11 11 12 12 12 13 13 14 16 16 15 16 16 19 19 17 16 17 16 16 17 17 17 17 17 17 17 18 18 18 18 18 19 19 20 19 18 18 18 17 18 18 17 17 16 17 19 19 18 18 19 19 20 20 20 19 19 19 18 18 19 19 18 17 18 19 19 20 23 23 23 24 24 25 26 26 26 25 24 23 22 21
9 9 10 10 10 11 11 11 12 12 13 13 13 15 16 15 15 16 17 18 18 17 17 17 16 17 17 17 17 17 17 17 17 17 18 17 17 18 18 18 19 19 19 18 17 17 17 17 16 17 17 18 19 19 18 19 19 19 20 20 20 19 19 19 18 18 18 18 17 17 18 19 19 21 23 23 24 24 24 24 25 26 25 25 24 23 22 21
9 9 10 10 10 10 11 11 12 12 13 13 14 15 15 15 15 17 17 17 18 17 17 17 16 16 17 17 17 17 18 17 17 17 17 17 17 17 17 18 18 19 19 17 17 17 18 18 17 18 18 18 18 19 19 20 19 19 19 20 20 20 19 19 19 19 19 19 17 17 19 20 21 22 21 21 23 23 23 23 22 23 23 23 24 23 23 21
9 9 9 10 10 10 10 11 11 12 12 13 14 14 14 15 16 17 17 17 17 17 17 17 16 16 17 17 17 18 18 17 16 17 17 17 17 17 17 18 18 19 19 18 17 16 17 18 18 17 18 18 18 19 19 20 19 18 18 19 19 20 20 19 18 19 19 18 18 18 19 19 20 21 21 21 22 22 23 22 22 23 23 22 24 24 22 21
9 9 9 10 10 10 10 11 11 12 13 13 14 14 14 15 16 16 17 17 17 17 16 16 17 16 16 17 17 17 18 17 17 17 17 16 17 17 17 18 18 18 19 19 18 17 17 18 17 16 17 17 18 18 18 19 19 18 18 19 19 19 20 20 18 17 17 19 18 18 19 19 19 21 22 23 23 24 24 24 25 25 22 22 24 24 23 23
9 9 9 10 10 10 10 11 11 12 13 13 13 13 13 14 14 14 15 16 17 18 17 16 16 16 16 16 16 17 17 17 17 17 17 16 17 17 17 18 19 19 19 20 19 19 19 18 16 15 17 16 16 17 18 18 18 18 18 19 19 18 19 20 19 18 17 18 18 18 19 20 20 21 22 23 23 23 25 25 26 25 23 24 26 25 24 24
8 9 9 10 10 10 10 11 11 11 12 11 11 12 12 13 14 13 14 15 16 17 17 16 17 17 16 16 16 16 17 17 17 17 17 16 18 18 18 18 19 19 19 20 20 20 19 19 16 14 15 16 16 17 18 17 17 18 18 18 19 19 19 19 19 19 18 18 18 19 19 19 19 20 22 23 24 24 25 25 25 25 24 24 25 24 24 23
8 8 10 10 10 10 10 10 10 11 11 10 10 11 11 12 13 13 13 14 15 16 17 17 17 17 16 16 16 16 17 17 16 16 17 17 18 18 18 19 19 19 19 20 20 20 19 19 17 14 14 15 16 17 17 17 17 17 17 17 18 18 19 19 18 19 18 18 18 19 19 19 20 21 22 24 24 24 24 24 24 23 23 23 24 24 24 23
7 8 9 10 10 10 10 10 10 10 11 10 10 11 11 12 13 13 13 13 14 15 15 16 17 17 17 16 16 16 16 17 16 16 17 17 18 18 18 19 20 19 19 19 20 20 19 19 18 15 14 15 16 17 17 17 17 18 18 18 18 17 17 18 18 18 19 19 18 18 19 19 20 22 23 23 23 23 22 22 22 22 22 23 23 24 25 24
7 8 9 9 9 10 10 10 10 10 10 10 10 11 12 13 13 14 14 13 14 14 14 15 15 16 17 16 16 16 16 16 16 16 17 17 17 18 18 19 20 19 19 19 19 19 19 18 17 15 14 15 17 17 16 17 18 18 18 18 18 18 17 18 18 17 18 19 19 18 19 19 21 23 24 23 22 22 22 22 22 22 22 23 23 24 24 24
7 8 9 9 9 9 10 10 10 10 10 10 11 11 12 13 13 14 14 13 13 14 14 14 14 15 16 16 16 16 16 16 15 16 17 17 17 19 18 18 20 20 19 18 18 19 19 18 17 16 15 15 16 16 15 16 17 17 17 17 17 17 18 18 18 17 18 19 18 18 18 19 22 23 23 21 21 22 22 22 23 23 23 24 24 25 25 24
7 8 9 9 9 9 9 9 10 10 10 11 12 12 13 13 13 13 13 13 13 13 14 14 14 15 15 15 15 15 16 16 15 16 16 17 17 18 18 18 19 19 19 19 18 19 19 18 17 16 15 15 16 16 15 16 17 17 17 17 17 17 18 18 18 17 18 18 18 17 17 19 21 24 23 22 22 22 22 23 23 23 23 23 24 24 24 24
7 8 8 9 8 9 9 9 10 10 10 11 12 12 12 13 13 13 13 13 13 13 13 13 14 15 15 14 15 15 16 16 15 15 16 16 17 17 17 18 19 18 19 18 18 19 19 18 17 16 16 15 15 15 15 16 16 16 17 17 17 18 17 17 17 17 17 18 18 17 17 18 21 23 22 22 22 22 22 22 22 22 22 23 23 23 23 23
7 7 8 8 8 8 9 9 9 10 10 10 11 11 12 12 13 13 13 13 13 13 13 13 14 14 14 13 14 14 15 15 15 15 15 15 16 16 17 18 18 18 17 17 18 19 18 17 17 17 16 15 15 15 15 16 15 16 16 17 17 17 17 17 17 16 16 18 18 17 17 19 20 21 21 21 20 20 21 22 22 21 22 21 21 21 21 22
6 7 7 7 7 7 8 8 8 9 10 10 10 11 12 12 13 13 13 13 13 13 14 14 14 14 12 12 13 13 14 14 15 14 14 14 15 15 16 17 17 17 17 17 17 18 17 16 16 17 16 16 16 15 15 15 16 16 16 16 16 16 16 17 17 16 16 17 16 16 17 18 19 20 20 20 19 19 20 21 21 21 21 20 20 20 20 20
5 6 7 7 7 7 7 7 8 8 9 10 10 11 11 11 12 12 13 13 13 13 14 14 14 13 12 12 13 13 13 14 14 13 13 14 14 14 14 15 16 16 17 17 16 16 16 15 16 16 15 16 16 15 15 15 16 16 16 15 15 15 15 16 16 17 17 16 16 17 17 17 18 19 19 19 19 19 20 20 21 21 21 20 20 20 20 20
5 6 7 8 7 7 7 7 7 8 8 9 10 12 11 11 11 12 12 13 13 13 13 13 13 13 13 13 13 13 13 13 13 13 13 13 14 14 13 14 14 14 16 16 15 16 16 15 15 15 15 15 15 15 14 15 15 15 15 15 15 15 15 15 15 16 16 16 16 17 17 16 17 18 18 19 18 19 19 19 19 19 20 20 19 19 19 20
5 5 6 8 8 8 7 8 8 7 8 8 9 11 11 11 11 12 12 12 12 13 13 13 13 13 13 13 13 13 13 13 12 13 13 13 13 14 13 14 13 13 14 15 14 15 16 15 15 15 15 15 15 14 14 14 14 14 15 14 14 14 15 14 15 15 15 15 15 16 15 15 17 17 18 18 18 18 18 18 18 18 18 19 19 19 19 19
5 5 6 7 8 8 8 8 8 7 8 8 8 9 10 11 11 12 12 12 11 12 12 12 13 13 13 13 13 13 13 13 13 13 13 13 13 14 14 14 14 13 13 14 13 14 15 14 14 14 13 14 14 14 14 13 14 14 14 14 14 14 14 14 14 14 14 14 14 14 14 14 16 17 18 18 18 18 18 18 18 18 18 18 18 18 19 18
5 5 6 6 6 7 8 8 8 7 7 8 8 9 10 10 11 11 12 12 12 12 12 12 12 13 13 13 13 13 13 14 14 14 14 14 13 14 14 14 14 13 13 13 13 13 14 13 12 12 13 13 14 13 12 12 12 12 12 13 13 13 14 14 14 14 14 14 14 14 14 15 16 17 17 18 17 17 17 17 18 18 18 18 18 18 18 18
5 5 5 5 5 6 7 7 7 7 7 8 8 9 9 10 11 12 12 12 12 13 13 13 12 12 12 12 12 13 13 14 13 13 13 13 13 13 13 13 13 13 13 13 12 13 13 12 11 12 12 13 13 13 12 12 12 12 13 13 13 13 13 14 14 14 14 14 14 14 15 16 17 17 17 17 17 17 17 18 18 17 17 17 17 18 18 17
Height
779 780 781 782 783 783 783 783 784 784 785 786 786 785 785 785 786 787 788 788 789 789 790 791 791 792 793 793 793 793 793 793 793 793 794 794 795 796 796 797 797 798 799 799 799 799 798 798 798 797 799 800 801 803 803 802 802 806 816 825 829 829 827 821 819 817 818 822 821 819 818 820 824 821 818 819 821 823 825 826 827 827 828 829 829 829 832 835
778 779 780 781 782 782 783 783 783 784 784 784 784 784 784 785 785 786 787 787 788 788 789 790 791 792 792 792 792 792 792 792 793 793 793 794 794 795 796 796 797 798 798 799 799 799 799 799 798 798 800 803 803 803 805 804 804 810 819 825 828 827 823 818 816 814 814 818 819 818 818 819 820 820 819 822 825 825 827 829 829 831 833 832 831 832 833 835
777 778 779 780 781 782 782 782 782 783 783 783 782 783 783 784 784 785 786 787 787 788 788 789 790 790 791 792 791 792 792 792 794 793 792 793 794 794 795 796 796 797 798 798 799 798 799 798 798 799 802 806 804 805 808 806 807 811 817 825 825 822 820 818 816 814 812 813 817 818 818 818 819 818 819 823 826 826 827 828 830 832 834 834 833 833 834 835
776 777 778 779 780 781 781 781 782 782 781 781 781 782 782 783 784 784 785 786 786 787 787 788 789 790 791 790 791 791 790 793 795 792 792 793 794 794 795 796 796 797 797 797 798 797 797 797 797 799 803 808 806 806 809 808 809 811 816 823 821 818 819 818 816 815 813 813 815 817 818 820 819 818 819 822 827 829 825 822 823 824 828 832 833 832 833 834
775 776 777 778 779 779 780 780 781 781 780 780 780 781 782 782 783 784 784 785 786 786 787 788 788 789 790 790 791 790 791 799 797 791 792 793 793 794 794 795 796 796 797 797 797 796 796 796 797 800 805 809 809 810 811 807 807 812 817 819 817 816 819 818 815 815 814 813 815 817 819 819 818 818 819 821 826 826 820 817 816 816 820 825 828 830 832 833
774 775 776 777 778 778 779 780 780 779 779 779 780 780 781 782 782 783 784 785 785 786 786 787 788 789 789 790 791 790 794 800 795 790 793 792 793 794 794 795 795 796 796 796 796 795 796 796 799 804 806 808 811 811 811 807 806 814 819 817 816 815 817 819 816 816 815 814 817 818 818 818 819 821 819 819 821 818 814 813 812 812 816 819 823 828 830 832
773 774 775 775 776 777 778 779 779 779 778 779 779 780 780 781 781 782 783 784 785 785 786 787 787 788 789 790 790 791 795 796 792 791 793 792 794 794 794 795 795 796 796 796 796 796 797 799 802 804 806 809 811 810 809 807 807 814 819 817 817 815 816 818 816 817 815 816 818 817 818 818 820 821 819 818 816 814 813 811 810 811 814 819 823 826 826 827
773 773 774 774 775 776 777 778 778 778 778 778 779 779 780 780 781 781 782 783 784 785 786 786 788 788 789 790 791 794 796 793 791 792 792 792 794 794 795 795 795 796 795 796 796 796 798 801 802 803 807 809 808 808 808 809 811 814 817 817 817 817 817 817 817 817 817 817 818 817 818 819 819 820 820 818 814 813 813 812 811 812 816 819 822 823 825 826
772 773 773 774 774 775 776 776 777 777 778 778 778 778 779 780 780 781 782 783 784 785 785 786 788 788 790 790 792 797 795 791 791 791 792 793 794 794 795 794 795 795 795 796 795 796 799 801 802 801 806 807 805 808 808 811 816 814 815 816 817 818 818 818 818 818 818 818 818 819 820 820 818 819 819 814 811 812 812 812 812 814 817 819 820 821 822 823
771 772 773 773 773 775 775 776 776 776 777 778 778 778 778 779 780 780 781 782 783 784 785 786 787 788 790 790 794 798 793 790 791 791 791 792 793 794 794 794 795 795 795 795 795 796 798 799 800 798 801 803 805 809 809 812 815 812 814 816 816 818 817 817 818 818 818 818 818 820 823 820 818 821 820 811 808 810 812 813 814 814 816 817 818 819 819 820
771 771 772 772 773 774 775 775 776 776 777 777 778 778 778 778 779 780 781 782 783 784 785 786 787 788 789 790 795 796 791 790 791 791 791 792 793 794 794 794 794 795 795 794 795 795 796 797 797 797 801 804 806 810 810 810 811 812 814 818 819 818 818 817 818 818 818 819 819 819 822 822 821 821 816 808 807 809 811 813 814 814 815 816 816 817 817 817
770 771 771 772 773 774 774 775 775 776 776 777 777 777 778 778 779 780 781 782 783 784 785 785 787 788 789 791 793 792 789 790 791 791 792 792 793 793 793 794 794 794 794 794 795 795 796 796 795 799 804 804 809 813 811 809 810 812 814 819 823 821 821 819 818 818 818 820 818 819 825 824 824 818 808 807 808 807 810 812 813 814 814 815 815 815 816 815
769 770 770 771 772 773 774 774 775 776 776 776 777 777 777 778 778 779 780 781 782 783 784 785 787 787 789 792 791 789 790 790 790 791 791 791 793 793 793 794 793 794 794 794 795 794 796 796 796 799 801 804 811 812 809 808 811 815 816 820 826 828 825 819 818 819 819 820 816 821 830 825 820 814 806 807 808 807 811 811 812 813 812 813 813 814 814 813
768 768 769 770 771 772 773 774 775 775 776 776 776 776 777 777 778 779 780 781 782 783 784 785 787 787 789 791 789 788 790 790 791 791 791 792 792 793 793 793 793 794 794 794 794 794 795 795 796 799 802 805 809 809 811 814 814 818 820 822 828 834 829 820 819 820 820 821 816 822 834 825 815 812 808 808 807 807 811 811 812 812 812 812 812 812 812 811
767 768 768 769 770 772 773 774 774 775 775 775 775 776 776 777 778 778 780 781 782 783 784 785 786 787 790 790 788 789 789 790 790 791 791 792 792 793 793 793 794 793 793 794 794 795 795 795 797 803 806 806 807 812 818 820 818 820 826 831 832 833 831 823 819 820 820 821 818 823 833 826 816 812 808 808 808 807 810 811 811 811 811 810 810 810 809 808
767 767 768 769 770 771 773 773 774 774 774 774 775 775 776 777 778 778 780 781 782 783 784 786 786 787 791 791 788 789 790 790 790 791 791 792 792 793 793 794 794 793 794 794 794 795 795 796 801 806 808 809 812 816 822 828 827 824 828 835 833 831 834 829 822 820 820 821 821 824 830 825 816 812 810 809 809 809 810 810 810 809 808 808 808 808 807 806
767 768 768 769 770 771 772 773 773 773 773 774 774 775 776 776 777 779 780 781 782 783 784 786 786 787 790 790 790 789 789 789 790 791 791 792 792 793 794 794 794 794 794 794 795 796 796 800 806 808 808 812 815 818 829 839 837 831 830 833 832 830 834 832 824 821 820 822 824 825 829 825 816 812 811 810 809 810 810 809 807 807 806 804 805 805 804 804
767 768 768 769 770 771 772 772 773 773 773 773 774 775 776 777 779 780 781 781 782 784 786 786 787 792 794 790 789 788 787 788 790 791 792 792 793 793 794 794 794 795 796 798 798 799 801 804 808 812 814 815 816 821 832 837 833 831 832 832 831 830 830 828 825 824 822 824 827 827 829 825 817 813 812 811 809 810 808 806 805 804 803 802 802 802 801 801
767 768 769 769 770 771 771 772 772 772 773 773 774 775 776 778 780 781 781 781 782 784 787 786 786 792 792 786 786 786 786 788 790 791 792 792 793 793 794 794 795 797 801 805 804 803 805 809 814 819 821 819 818 821 824 824 823 825 827 829 830 829 831 829 827 827 825 826 827 826 826 823 819 815 811 810 809 809 807 805 804 803 802 801 800 798 797 798
767 768 769 769 770 770 771 771 772 772 773 774 774 775 777 779 782 784 783 781 781 781 783 782 782 786 786 784 785 786 787 789 791 791 792 792 793 794 794 795 798 801 805 808 808 806 807 816 821 820 820 816 814 815 816 817 818 820 824 828 830 830 832 832 829 827 824 826 826 824 825 822 820 816 810 808 807 807 807 805 803 802 801 799 798 796 794 793
767 769 769 770 770 770 771 771 771 772 773 773 774 775 776 777 780 783 783 782 780 779 780 780 781 783 783 784 785 785 787 791 792 791 793 793 793 796 798 799 804 808 808 808 809 807 810 821 822 815 813 812 810 811 813 815 816 819 823 827 829 830 832 832 830 826 824 827 826 824 825 820 817 815 809 807 806 804 802 801 799 797 798 797 795 793 791 789
768 769 769 770 770 770 771 771 771 772 772 773 774 775 776 775 776 776 778 781 780 779 780 781 781 783 783 784 785 785 787 793 795 793 793 793 794 798 800 802 807 810 809 809 812 816 820 824 817 810 811 810 811 811 811 815 817 820 824 828 830 831 833 833 830 827 825 827 826 826 827 819 813 812 807 803 801 797 795 794 793 792 794 795 792 790 789 788
768 768 770 770 770 771 770 771 771 771 773 773 774 775 775 775 775 775 775 778 781 781 781 781 782 784 785 785 785 785 787 791 795 795 793 794 796 798 800 804 807 810 811 811 815 823 827 821 812 810 810 809 812 812 812 816 819 822 825 830 832 831 833 834 830 827 826 828 828 829 829 818 809 808 803 798 796 794 792 790 789 789 790 788 786 785 786 786
767 768 769 769 770 770 770 771 771 772 773 774 775 775 775 775 775 775 775 776 781 782 781 781 782 783 784 784 783 786 788 789 791 793 792 794 797 798 800 803 807 812 812 810 813 819 821 817 812 811 809 809 813 815 814 818 823 825 824 828 830 828 831 833 830 827 826 828 830 830 828 815 805 805 799 792 794 792 789 788 787 787 785 783 782 781 782 782
766 768 768 769 771 770 770 771 771 773 773 774 775 775 776 776 775 776 776 779 784 784 783 781 780 781 780 781 783 784 786 789 790 791 791 792 795 798 800 799 805 813 812 810 814 817 816 815 813 811 810 811 814 816 816 819 826 828 825 826 825 825 829 831 830 829 831 835 832 832 835 820 804 805 801 792 791 789 786 786 785 784 783 782 781 778 779 780
765 767 768 769 770 769 770 770 771 773 773 775 775 775 776 775 776 776 776 789 792 786 786 784 781 781 778 781 783 783 789 793 791 791 791 793 793 795 801 801 803 809 809 809 813 817 816 814 813 813 812 815 816 819 819 819 827 831 829 828 824 824 828 830 830 833 838 841 834 833 842 835 814 803 800 794 792 789 785 783 782 782 781 777 776 775 776 778
765 766 767 768 769 770 770 770 772 773 773 776 774 775 776 774 777 774 781 804 800 780 783 786 782 779 777 780 781 784 795 795 791 793 791 793 793 793 801 805 804 806 805 809 816 819 817 815 815 814 815 819 820 822 821 819 827 832 829 828 823 823 828 830 831 835 839 840 838 836 839 844 829 805 796 795 794 791 785 782 780 778 776 773 772 775 775 775
766 766 767 768 769 770 770 770 772 773 774 775 773 775 775 774 778 774 787 812 797 772 777 782 779 777 777 780 780 785 792 790 792 797 792 793 795 794 800 804 803 804 803 808 819 822 817 815 816 815 818 822 821 823 824 821 825 829 828 826 823 824 828 830 833 838 842 843 844 841 839 847 837 808 798 799 797 794 787 782 778 773 773 773 772 774 774 774
767 767 766 768 769 770 770 771 772 773 774 774 773 775 774 775 777 776 794 805 782 768 775 777 778 780 779 782 785 787 789 789 794 796 793 794 795 795 800 802 800 803 806 808 816 820 820 818 818 816 817 820 823 828 828 822 822 826 827 826 825 828 831 833 837 839 845 848 845 840 837 843 833 807 801 804 798 793 785 778 778 776 774 773 772 773 773 774
767 767 767 767 768 770 770 771 772 773 774 773 774 774 774 777 778 788 807 796 770 771 778 777 781 781 781 786 790 790 790 794 795 795 796 796 795 795 797 799 799 805 811 813 817 822 822 821 821 819 818 820 824 829 829 825 824 825 826 828 831 835 835 838 842 842 847 849 842 838 835 839 836 811 800 800 792 786 782 778 779 777 775 773 772 773 774 775
767 767 767 767 768 770 770 772 772 773 774 774 774 774 775 780 784 797 804 779 764 778 782 780 784 782 782 786 791 792 792 797 796 796 799 799 800 800 800 803 804 811 818 818 822 826 822 820 822 821 821 823 823 825 827 826 826 825 826 831 836 841 842 844 848 850 852 847 840 842 841 842 841 815 794 794 789 783 782 780 778 777 775 774 773 775 776 777
767 767 767 767 768 769 770 772 772 773 774 773 775 774 776 787 792 793 786 767 767 779 778 780 783 782 784 785 788 791 793 798 797 796 799 802 804 803 802 804 805 816 826 824 825 828 824 822 824 823 822 821 820 826 832 829 827 828 829 834 841 850 853 853 856 857 855 848 842 844 843 838 831 809 792 789 784 781 782 781 778 777 776 775 776 777 778 778
767 766 767 768 768 769 770 771 772 773 774 774 776 775 779 792 792 781 774 769 770 772 770 775 778 779 784 787 790 791 791 796 797 796 798 800 805 805 803 802 801 807 817 822 828 830 829 829 828 826 824 820 817 824 833 832 830 830 828 831 840 852 860 858 860 861 853 846 845 846 842 832 817 800 790 784 777 777 780 780 779 777 777 776 777 778 778 778
766 766 767 767 768 769 770 772 773 773 774 774 776 778 784 789 780 769 771 771 768 767 768 772 778 782 784 785 788 788 790 796 796 795 799 802 807 808 805 804 802 801 807 820 828 829 830 830 825 822 819 817 816 817 820 823 827 829 826 828 832 839 846 849 851 851 845 843 847 848 839 823 807 793 787 784 780 779 779 780 782 780 779 779 777 778 778 779
767 767 767 768 768 769 770 772 773 773 774 775 777 782 785 781 772 768 770 768 766 768 770 772 778 786 787 786 786 783 786 795 796 796 800 802 805 806 803 802 802 800 804 816 824 826 828 823 816 814 813 812 814 814 812 818 827 830 827 830 831 828 829 838 845 844 843 846 847 843 831 815 802 789 783 783 780 778 778 778 780 779 780 780 778 778 779 779
767 767 767 768 768 769 771 773 774 774 774 776 780 782 778 771 769 768 765 763 765 767 773 778 780 787 791 789 788 785 783 789 795 798 800 801 801 801 800 796 795 796 798 805 815 820 825 823 817 816 815 813 813 813 812 816 822 828 830 829 827 824 822 832 846 848 848 847 841 835 823 810 804 792 780 780 779 776 777 775 774 776 779 781 778 778 779 777
768 767 767 768 769 769 771 773 774 775 775 778 781 779 774 770 769 770 765 763 763 763 771 781 781 783 789 790 790 787 784 787 794 796 799 802 798 794 796 792 789 791 791 794 802 806 812 819 821 819 818 817 816 814 815 815 816 824 829 824 821 826 825 828 841 849 852 850 840 830 820 812 812 801 782 780 782 779 776 774 772 774 778 779 777 777 777 775
768 768 768 768 769 769 771 772 775 775 777 784 786 781 778 774 770 771 769 766 764 763 768 776 776 776 782 787 788 786 784 788 794 795 796 800 793 785 788 789 786 787 786 788 795 797 800 813 822 825 823 820 817 816 819 819 817 819 821 819 821 830 833 833 839 844 850 852 839 825 820 814 809 800 786 781 782 778 774 773 773 775 777 779 778 777 776 775
769 769 768 768 769 770 771 772 775 776 780 789 791 783 778 775 771 771 771 770 769 767 767 769 771 774 778 780 783 784 783 785 791 794 793 796 791 781 780 782 782 784 784 786 792 793 796 807 819 825 824 822 819 818 822 823 821 819 819 821 822 826 829 830 834 836 840 847 840 826 821 809 794 790 787 781 778 775 775 775 776 779 780 779 777 774 773 774
769 770 769 767 768 770 771 772 774 778 781 785 786 782 776 773 770 768 769 772 773 772 771 770 768 772 775 776 778 780 782 784 788 790 788 788 788 782 778 777 779 782 783 785 788 791 796 803 814 825 827 825 820 817 818 819 819 819 821 824 824 826 829 829 830 831 830 836 839 834 825 805 785 780 777 776 777 776 778 779 779 780 780 778 775 773 772 772
770 771 770 767 768 769 770 773 775 777 779 780 780 779 775 772 769 767 767 771 773 773 774 773 771 770 770 774 777 776 780 784 786 787 785 785 785 782 778 775 775 779 783 789 790 790 796 803 813 825 827 821 814 810 811 810 810 812 815 817 818 821 827 832 835 832 826 826 830 834 827 799 777 773 771 774 778 776 776 777 776 778 776 774 772 771 771 770
771 771 769 767 769 769 770 774 775 774 777 777 775 774 773 772 770 768 767 770 773 773 773 774 774 773 770 773 776 775 778 782 785 785 782 782 781 779 777 773 772 774 779 788 790 785 791 802 811 819 821 816 811 810 812 810 806 809 811 812 814 816 819 825 832 831 827 826 823 831 828 793 766 767 770 773 775 773 774 774 773 775 773 771 772 770 771 772
772 770 768 767 768 768 772 776 775 774 774 770 768 769 769 769 770 769 768 770 772 773 774 774 773 773 772 773 775 775 776 779 784 784 781 781 780 776 775 773 771 773 776 784 787 784 788 799 807 813 817 815 811 810 812 810 809 812 812 812 815 816 813 816 822 823 825 824 822 832 831 794 764 765 769 770 771 771 773 774 773 775 775 775 776 774 774 774
771 770 768 768 768 768 771 772 771 773 773 769 767 768 768 767 767 768 769 770 771 772 774 774 772 772 773 773 774 774 775 778 783 783 782 783 780 776 775 773 772 775 777 780 782 782 788 797 803 813 820 820 819 818 816 814 814 814 812 812 811 811 814 818 820 823 825 821 819 828 826 794 767 767 770 770 772 774 775 776 776 778 778 778 778 778 778 777
771 771 769 768 768 769 770 769 768 770 771 770 769 768 767 767 765 765 767 768 769 770 772 773 770 770 775 777 777 777 776 776 780 783 783 784 781 777 776 774 774 776 779 780 779 779 788 796 798 806 816 820 820 820 817 814 815 814 810 809 809 810 813 816 819 826 826 818 815 820 814 791 770 770 774 775 778 782 780 777 778 779 779 780 780 780 779 778
772 772 771 770 770 770 770 769 770 771 769 769 771 768 767 767 764 762 764 766 768 768 769 770 769 772 779 782 780 780 779 776 778 783 785 785 784 781 779 776 776 778 779 781 780 781 791 797 795 797 803 805 807 810 810 807 810 811 809 808 811 812 811 812 817 822 818 816 816 812 805 794 776 769 774 778 782 785 782 779 778 778 778 779 780 780 779 778
773 771 768 770 771 772 772 771 771 771 768 767 768 765 765 767 765 764 765 764 766 767 768 769 769 772 778 780 780 780 780 780 782 784 785 786 785 785 784 781 780 780 779 781 783 785 793 798 796 797 800 799 801 805 806 806 807 808 809 810 813 815 815 815 814 810 808 815 815 802 800 801 786 770 771 777 783 785 781 779 779 777 778 778 778 778 777 776
773 769 764 763 766 769 771 769 768 770 770 769 765 761 763 767 766 765 765 764 764 766 768 770 769 769 771 773 776 778 780 783 785 784 783 785 786 787 789 787 786 784 782 784 787 787 793 798 796 797 801 800 801 804 805 807 808 807 809 811 812 814 816 816 811 805 806 812 806 796 799 802 789 774 770 773 781 783 780 779 778 776 777 777 776 776 774 772
772 770 765 762 761 762 763 763 765 769 771 771 768 762 761 763 763 761 761 764 766 765 766 768 768 767 769 770 771 775 778 781 784 782 781 784 785 786 789 790 789 789 787 788 790 788 793 799 798 799 802 800 800 802 804 806 809 808 808 810 811 812 811 811 809 807 808 810 803 798 801 797 785 778 772 769 774 779 779 777 775 774 775 776 775 775 772 770
770 770 767 764 762 760 761 762 764 769 770 771 770 766 760 759 760 759 758 761 765 765 764 765 764 764 767 768 769 772 771 771 775 777 778 783 784 782 784 785 786 790 791 790 793 792 794 799 801 803 807 805 799 800 804 807 808 809 810 809 809 809 808 808 809 808 810 810 804 802 804 795 781 778 776 768 768 774 777 775 772 770 772 774 774 773 771 768
767 767 766 768 766 762 762 762 764 768 770 769 768 765 761 758 757 757 757 756 758 761 761 761 762 764 766 768 769 769 768 767 769 770 771 775 777 777 779 780 781 787 791 792 793 793 795 802 805 807 810 805 798 800 807 809 811 814 813 808 806 806 804 801 801 803 805 803 801 804 805 792 776 776 778 771 767 771 773 772 769 766 768 772 773 771 768 766
766 766 766 770 770 764 761 762 763 766 765 762 759 758 758 757 755 755 758 756 754 755 756 757 761 765 766 768 767 765 765 767 769 771 771 772 774 776 778 780 780 782 787 790 793 793 795 801 805 808 808 802 796 800 806 811 816 814 802 794 796 800 798 796 795 794 793 794 798 799 793 781 774 776 778 773 769 768 768 766 765 765 768 772 771 767 766 765
Wind_Speed
7 7 6 6 5 4 4 3 2 3 2 3 3 3 4 5 6 7 7 7 6 6 6 6 5 4 4 4 4 3 2 1 1 1 3 4 4 5 7 7 6 6 5 5 4 3 2 3 5 4 1 0 1 1 1 2 2 4 3 3 2 2 0 3 4 5 4 4 5 5 5 7 4 1 1 2 5 3 4 5 4 7 7 7 12 22 28 28
5 7 7 6 5 4 3 3 3 3 3 3 3 4 5 6 6 7 7 6 6 6 6 6 5 4 4 4 4 2 2 1 0 2 6 6 5 6 7 6 5 6 6 5 2 1 1 4 5 5 3 1 0 1 1 2 2 3 3 3 3 3 1 4 2 3 3 6 6 6 6 6 5 5 2 1 1 2 5 3 5 7 6 8 14 22 26 27
4 6 8 7 5 4 4 3 3 3 3 3 4 4 4 6 6 7 7 7 7 6 6 6 5 5 4 3 3 3 1 3 2 3 7 8 7 7 7 6 6 6 6 5 1 2 3 6 7 6 4 0 1 2 1 1 1 2 3 3 4 5 1 5 3 2 2 8 8 5 5 3 3 5 3 3 4 3 5 4 4 4 5 6 9 17 22 23
5 5 7 7 5 5 4 2 2 2 2 3 4 4 4 5 6 7 7 7 7 7 6 6 5 5 4 3 2 1 2 4 1 3 6 9 8 7 6 6 5 5 5 4 4 5 6 8 5 5 3 1 1 2 2 1 1 1 3 4 5 3 2 5 3 3 2 6 9 5 5 4 3 4 3 5 5 2 6 6 7 9 11 11 8 13 19 20
6 5 6 7 6 4 3 2 2 2 2 3 4 4 4 4 6 6 7 7 7 7 6 6 6 5 3 2 1 1 3 3 2 2 6 9 8 6 6 6 5 4 4 3 4 4 7 6 1 3 2 2 1 3 2 3 2 2 1 4 3 3 3 3 3 5 4 5 6 6 6 3 3 2 4 7 5 5 6 6 10 10 13 15 13 14 16 16
7 6 7 7 6 4 3 3 2 2 2 3 3 4 4 5 5 5 6 6 7 7 6 6 5 4 3 1 1 1 3 2 2 1 5 8 7 6 6 5 4 4 3 3 2 3 5 4 3 2 1 2 3 3 3 2 3 3 1 1 2 3 4 2 2 4 4 7 5 4 2 2 5 1 3 7 6 7 6 6 8 9 15 20 18 16 13 13
7 7 8 8 6 5 4 3 2 1 1 2 3 4 4 5 5 5 6 6 7 6 6 6 5 4 2 1 2 2 2 2 2 3 5 6 7 7 6 5 4 3 4 2 2 3 2 3 1 2 2 2 3 4 2 1 4 5 1 1 3 4 5 2 1 3 6 7 2 1 2 2 5 3 0 3 7 6 6 5 6 10 17 20 16 14 14 15
8 8 8 8 8 6 4 4 2 2 2 1 3 4 4 4 5 5 5 6 7 6 6 6 5 3 2 3 3 3 1 2 3 5 5 6 7 7 6 4 4 3 3 1 3 2 1 1 3 2 1 1 4 4 3 4 4 3 2 1 2 3 2 3 3 3 5 5 2 4 2 3 5 4 1 5 9 6 6 4 8 12 15 15 13 13 13 14
8 9 9 9 8 7 5 4 3 3 2 2 3 4 4 4 5 5 6 6 6 6 6 5 4 3 4 4 4 2 2 3 5 5 6 6 6 7 6 5 4 3 1 2 4 1 1 0 2 2 2 2 3 4 3 5 0 2 4 2 3 2 2 3 3 3 2 2 3 4 1 5 3 1 2 7 9 6 6 6 8 11 12 11 11 12 12 12
9 9 9 9 8 7 6 5 4 4 2 2 3 4 5 4 5 5 6 6 6 6 6 5 4 3 4 3 4 1 3 4 7 6 7 6 7 7 6 5 5 3 0 3 1 2 2 2 2 2 3 1 3 3 3 5 2 2 5 4 5 4 2 2 3 2 1 1 3 4 2 5 3 1 3 8 7 6 7 6 7 10 11 11 10 11 14 14
9 9 9 8 7 7 6 4 4 3 3 3 3 4 5 5 5 5 6 7 6 6 5 5 4 4 5 4 4 3 2 4 6 6 7 6 7 7 5 4 4 3 0 1 2 2 2 1 3 2 1 2 2 3 2 3 2 4 7 5 2 2 1 1 3 2 1 2 2 5 1 3 2 2 6 8 5 7 10 7 7 8 9 10 10 10 11 13
9 10 9 8 7 7 6 5 4 3 3 3 3 3 4 5 5 6 6 7 7 7 6 5 4 5 5 4 2 4 3 5 7 5 6 6 6 5 5 4 4 3 0 2 3 2 3 1 5 3 1 2 2 2 1 1 3 5 6 5 2 4 3 3 2 3 3 1 3 4 2 4 2 7 10 6 4 7 9 8 7 8 7 8 9 8 8 12
9 10 9 8 8 7 6 4 4 3 2 2 2 3 4 5 5 6 7 7 7 7 6 5 5 6 4 1 2 3 4 7 8 7 7 7 6 5 5 4 3 3 1 1 3 4 4 2 5 5 2 4 3 1 1 2 4 3 3 5 1 5 4 7 2 2 4 0 2 3 1 6 6 11 10 5 6 8 8 8 7 7 7 7 7 7 7 11
9 9 9 9 9 8 5 4 3 2 2 2 3 3 4 5 5 6 6 6 7 7 7 6 7 6 3 1 1 3 6 8 8 8 8 7 8 7 5 4 3 2 2 2 5 5 4 3 5 5 2 4 3 0 3 4 3 1 1 3 3 2 4 7 1 4 3 1 2 5 2 7 8 11 10 5 7 9 8 8 6 6 6 6 7 7 8 10
7 8 8 7 7 8 6 4 3 2 2 3 3 2 3 4 5 6 6 7 7 8 7 7 8 6 2 1 0 5 7 7 7 7 7 6 7 6 4 5 5 4 3 4 6 6 4 4 5 4 1 1 4 4 3 3 3 2 2 3 3 2 3 7 1 5 5 2 2 6 2 6 7 9 7 1 6 8 7 7 6 6 7 7 7 7 8 9
6 7 8 7 7 7 6 5 3 1 1 1 1 1 2 4 5 6 7 7 7 8 8 6 7 6 2 1 2 5 6 4 6 8 7 6 6 6 6 7 5 5 5 5 6 5 5 6 4 2 2 2 4 5 4 4 4 3 3 2 3 2 2 4 3 1 4 1 1 2 2 4 4 6 7 3 4 6 6 7 7 7 8 8 7 7 8 8
7 7 8 8 7 7 5 4 3 1 1 2 3 4 5 6 8 8 8 9 9 8 6 4 5 4 1 1 3 3 4 5 7 9 8 6 7 8 6 4 3 3 4 3 3 3 3 4 1 1 3 2 3 5 5 3 3 4 1 1 4 3 3 2 4 3 4 5 1 1 3 6 7 7 7 6 2 5 5 8 8 8 8 8 7 7 8 8
7 7 8 8 7 6 5 3 2 2 2 3 4 7 9 9 10 9 9 11 9 7 3 2 3 3 1 2 3 3 5 7 8 8 8 6 7 7 3 1 3 3 4 3 2 2 3 3 2 2 3 2 2 5 4 3 4 3 3 2 3 3 3 3 3 2 2 3 2 2 4 9 11 10 8 7 5 6 8 9 8 8 8 8 7 8 8 9
8 7 7 7 6 6 5 4 3 3 4 6 8 11 12 10 9 7 7 7 6 4 1 2 4 3 2 4 3 4 8 9 7 7 7 5 5 4 2 2 4 4 4 2 2 1 2 3 3 3 1 2 3 5 6 7 7 7 6 4 3 2 2 4 2 3 0 2 3 5 6 9 9 11 10 8 7 7 9 9 8 8 8 8 7 7 8 9
9 9 8 8 8 7 5 4 4 5 7 9 10 11 8 6 5 2 1 1 2 2 2 3 4 3 1 2 4 9 10 8 4 4 6 5 4 3 2 3 5 5 2 3 1 1 4 4 1 4 5 6 7 7 7 5 6 6 5 4 2 3 1 3 1 4 1 2 5 6 6 9 9 10 11 9 7 7 9 10 9 9 8 8 9 10 10 10
9 9 8 7 7 6 4 4 6 5 6 9 8 5 3 3 3 1 2 2 4 1 2 2 4 3 3 6 10 10 7 4 2 1 6 5 4 4 1 2 5 2 1 4 2 2 5 4 5 7 8 8 6 6 6 4 5 6 5 5 3 1 1 3 1 5 3 2 5 4 5 11 9 9 11 8 8 8 10 11 11 12 10 8 9 12 12 9
7 7 6 5 4 4 4 5 5 4 6 8 4 1 0 1 2 3 3 1 3 1 4 3 5 3 3 7 10 6 4 3 2 1 5 5 3 3 2 3 5 3 1 4 3 4 4 2 7 8 7 5 3 4 8 6 6 5 4 5 2 1 1 3 3 4 2 2 4 5 6 12 11 9 11 11 11 10 11 12 12 12 10 9 11 12 11 9
7 6 5 4 3 3 3 4 4 4 7 7 2 2 1 3 3 2 2 3 1 1 2 2 3 3 2 2 7 4 4 4 3 3 5 6 2 2 4 4 5 4 2 4 5 4 2 5 8 6 5 7 4 4 8 6 4 4 4 4 1 3 1 2 4 4 1 1 2 4 6 10 10 7 10 12 11 10 10 11 11 10 10 12 13 11 10 10
9 7 5 5 3 2 2 4 3 4 6 5 1 1 2 5 3 0 1 2 2 1 0 1 2 4 3 2 6 6 3 3 4 4 7 7 4 2 4 5 5 4 3 6 8 6 4 6 4 1 4 7 5 3 6 5 1 1 3 5 3 2 2 2 2 3 3 3 2 4 5 8 6 5 7 7 5 7 8 8 9 10 11 12 11 10 9 10
11 9 7 6 4 2 3 4 3 5 6 4 3 3 2 3 3 1 2 2 0 1 2 2 1 3 5 5 6 6 3 2 1 2 7 8 4 2 2 3 4 4 6 7 8 5 5 5 0 3 3 5 6 3 3 6 2 3 1 4 6 5 5 2 3 5 5 5 4 4 4 6 5 5 8 8 6 7 6 4 8 10 9 9 10 10 9 7
8 11 10 8 7 3 2 3 3 4 5 3 3 3 2 2 1 1 3 4 1 2 1 3 1 4 7 5 5 4 3 0 2 2 5 4 2 2 2 1 2 3 7 5 4 2 2 2 3 4 4 6 6 2 3 5 5 1 3 3 5 7 7 4 3 4 1 3 3 3 3 5 8 6 8 6 6 9 8 7 7 8 8 9 10 9 7 6
1 8 13 12 9 4 2 3 2 3 3 2 2 3 2 2 1 1 4 5 3 3 4 1 1 5 8 5 6 5 3 4 1 3 3 2 1 2 2 3 2 2 3 3 2 1 1 2 5 5 6 6 5 2 3 5 7 2 4 3 5 7 6 5 6 3 2 2 4 4 4 2 8 6 5 2 6 9 10 10 10 8 9 11 9 6 6 8
2 3 10 13 11 7 3 3 3 2 2 1 1 4 5 3 1 1 5 3 2 2 4 1 1 5 5 4 5 5 3 3 4 1 2 3 0 3 3 5 5 4 1 6 4 4 1 3 3 5 6 3 3 3 3 5 6 4 5 4 5 7 6 5 7 3 1 2 5 5 2 2 7 7 3 4 5 9 10 10 11 10 10 10 8 6 7 8
1 1 4 10 10 7 5 1 3 3 2 3 2 5 7 4 0 3 5 2 2 1 1 1 3 3 3 4 4 3 2 2 2 2 2 2 0 3 3 4 5 5 2 6 6 3 0 4 5 6 5 3 4 2 2 4 4 3 3 5 5 5 5 5 5 3 3 2 4 6 2 2 6 8 5 4 3 7 9 9 8 8 8 8 6 4 4 2
1 2 2 7 8 5 5 4 2 1 3 3 3 7 8 3 2 5 3 3 2 1 1 2 2 3 7 7 2 1 3 3 1 1 2 1 2 4 2 1 3 6 3 6 4 1 2 1 2 3 3 5 5 2 2 3 4 4 5 7 7 6 5 4 3 4 3 3 6 8 6 5 4 7 4 3 4 6 6 6 5 4 5 2 1 4 5 4
2 2 2 6 7 5 4 1 2 3 1 2 3 7 6 3 3 4 5 3 2 2 1 2 1 4 10 11 5 2 4 2 1 4 3 1 2 3 1 1 4 5 3 4 3 4 5 3 0 1 1 3 6 4 4 4 4 6 5 5 4 4 5 5 5 4 1 5 7 6 4 5 5 7 5 5 6 6 5 5 4 4 3 0 2 2 2 3
3 2 4 6 7 6 5 2 1 3 4 1 1 3 4 3 1 3 4 2 1 3 4 4 3 6 9 8 6 5 5 3 2 4 5 4 4 3 3 4 4 3 0 3 0 3 4 2 2 2 2 3 6 5 5 6 5 5 5 6 4 2 3 3 3 0 3 6 5 4 1 3 7 7 7 10 11 8 5 4 5 6 5 4 3 2 2 4
3 1 3 6 7 7 6 2 1 1 3 1 2 3 4 3 5 6 3 1 2 3 4 5 5 9 10 7 5 5 4 3 5 4 3 4 5 5 3 3 5 4 2 5 3 1 2 5 2 2 3 2 6 5 2 1 0 4 5 5 5 3 1 3 3 2 4 5 4 3 2 4 5 4 9 14 13 7 3 5 6 6 6 5 4 4 4 4
4 2 0 2 5 8 6 3 1 1 2 2 3 4 4 5 5 5 4 2 1 3 3 5 7 9 9 5 5 6 3 1 6 5 3 4 5 5 4 4 4 3 4 4 4 5 3 4 3 5 3 4 7 6 7 6 4 5 5 6 6 5 5 4 3 3 4 4 3 3 2 3 2 3 6 9 9 7 5 4 3 2 3 3 3 4 4 3
4 3 2 1 3 6 6 3 2 2 3 3 4 4 6 7 4 4 5 3 1 2 3 7 9 7 6 2 3 7 4 2 5 5 4 5 5 6 5 5 6 4 5 4 2 3 4 5 6 4 3 8 9 5 6 7 1 3 3 5 4 5 5 3 3 5 3 1 2 2 3 4 4 6 8 7 8 8 7 5 3 3 2 0 2 4 4 5
4 4 3 2 1 4 5 4 3 3 3 4 4 6 6 4 3 3 3 3 3 4 7 7 5 5 5 2 3 6 3 3 5 4 3 4 4 5 6 5 8 8 7 6 3 2 3 4 5 0 0 5 7 3 4 4 2 2 2 4 5 5 7 4 3 0 3 2 4 2 5 5 3 7 9 7 7 8 8 8 6 5 1 0 4 5 5 6
4 4 3 1 1 3 6 7 8 7 3 4 3 6 2 0 2 1 1 1 4 7 8 5 2 4 5 3 4 6 2 3 5 4 3 4 3 5 7 4 6 11 9 6 3 3 5 2 4 1 2 4 2 4 2 2 3 5 3 6 3 2 4 4 1 3 2 3 4 2 6 5 2 5 6 4 4 6 8 7 7 6 4 4 6 6 6 7
5 4 3 3 3 4 5 10 11 7 3 3 2 4 1 1 3 1 2 2 2 5 6 4 3 4 6 5 5 6 5 4 5 5 4 4 4 6 9 4 5 12 11 6 4 3 4 2 5 1 2 5 3 4 0 4 2 5 4 4 3 2 1 1 2 2 1 3 5 4 5 4 5 6 3 4 6 9 10 8 7 6 6 4 5 6 7 6
3 2 3 2 5 4 5 10 11 5 3 3 3 5 2 3 4 3 1 3 3 2 3 3 3 3 5 6 5 5 5 5 7 6 3 4 4 5 9 7 5 11 11 9 6 3 3 3 4 2 1 2 4 2 5 2 2 2 1 1 2 3 4 3 3 3 3 3 4 4 3 4 6 6 5 7 10 10 9 6 2 3 2 4 6 6 6 4
1 1 1 3 7 6 8 10 7 4 3 4 5 3 1 1 4 6 4 1 2 1 1 1 1 4 5 5 5 5 4 5 8 6 3 5 4 4 6 7 5 7 10 10 7 2 2 2 4 3 3 0 1 3 7 7 4 3 3 3 2 1 2 2 2 2 4 4 3 3 5 7 5 5 7 8 7 7 6 3 3 2 4 6 6 6 6 4
1 1 1 5 8 8 10 8 3 3 3 3 5 4 2 0 2 4 3 5 2 1 2 1 1 4 4 3 4 5 4 4 6 5 2 5 5 2 3 5 6 6 7 9 7 4 2 2 3 2 1 3 6 6 7 10 9 7 6 7 7 5 4 2 3 2 2 4 5 3 6 11 6 5 5 6 5 5 5 3 1 3 6 6 6 6 6 5
2 1 1 7 10 10 9 4 1 3 2 3 5 5 4 3 2 4 1 4 3 3 1 1 0 1 2 3 3 4 5 4 5 5 4 5 5 3 3 3 6 7 7 5 5 4 3 4 4 3 3 5 7 6 3 5 4 3 4 5 4 4 5 6 5 4 0 3 3 3 5 12 4 7 6 7 6 4 4 4 6 6 6 8 8 9 8 6
1 1 1 6 10 10 7 3 3 3 2 2 4 4 4 3 4 4 3 2 3 3 1 1 1 1 1 2 2 3 4 4 4 4 3 2 3 4 4 1 3 7 5 3 3 3 2 3 3 2 3 3 4 5 4 2 2 1 3 3 3 3 4 5 5 4 2 4 3 2 6 11 3 7 5 3 1 2 4 5 6 6 7 7 7 8 7 7
1 1 1 3 7 8 5 4 5 5 3 2 3 4 4 3 4 5 4 4 4 3 3 3 3 2 1 1 3 3 3 3 3 3 2 3 2 4 3 3 4 4 3 3 4 3 3 3 4 3 1 3 4 4 4 4 1 2 3 3 5 6 5 3 2 2 1 5 6 5 8 11 4 5 5 3 4 6 6 6 5 4 5 6 6 7 7 8
0 0 1 1 3 4 3 1 2 4 5 4 4 6 5 3 4 6 6 5 4 3 4 4 3 3 2 3 3 1 1 3 2 2 2 2 2 3 4 5 5 3 1 2 3 3 3 3 4 5 5 5 3 3 4 2 1 2 3 5 6 7 9 5 2 3 5 7 7 6 8 12 12 4 3 1 4 7 6 7 5 4 5 6 6 6 6 7
1 1 1 1 1 1 1 1 2 2 5 6 4 5 6 4 3 5 6 5 4 4 4 3 4 4 3 2 1 1 2 1 2 2 3 2 2 2 4 5 5 4 3 6 6 3 3 1 3 5 6 7 6 5 4 3 4 3 4 5 5 5 8 7 4 5 8 7 6 9 10 15 21 17 11 7 1 4 2 6 6 6 6 5 5 6 6 6
1 1 3 3 1 1 2 2 2 2 3 5 4 4 8 7 3 3 4 4 5 6 3 2 4 5 5 6 5 5 5 3 1 1 3 3 1 2 4 5 4 2 5 4 5 3 4 1 2 4 4 6 6 4 3 5 3 4 3 2 1 1 4 6 6 8 7 5 9 12 10 13 21 21 18 11 1 3 6 6 5 6 6 6 6 6 7 7
2 1 1 3 1 3 5 5 6 6 3 3 3 3 7 9 6 5 4 3 4 6 4 2 6 9 9 9 7 6 6 6 4 5 5 4 2 1 3 3 3 1 2 2 3 3 5 2 3 1 4 5 4 5 3 4 3 3 3 3 3 3 5 7 11 10 6 6 11 10 7 10 16 19 20 12 1 3 7 7 6 6 6 7 8 8 9 10
2 2 3 2 1 4 5 4 6 8 7 4 2 3 7 12 12 8 5 4 4 6 6 6 8 10 8 8 8 6 7 8 7 8 5 4 4 3 2 1 1 2 3 3 0 1 4 3 4 3 5 8 8 8 5 4 4 4 5 5 4 5 8 9 11 11 7 7 11 12 11 13 15 15 18 15 7 4 6 7 8 9 7 7 8 9 9 10
2 0 1 2 2 2 3 3 6 7 8 6 4 3 4 9 13 9 5 6 7 6 7 9 10 9 9 8 8 7 9 10 10 9 8 7 6 4 4 4 2 2 2 3 2 1 2 4 4 5 4 10 12 11 8 6 7 7 6 6 6 9 11 11 10 8 6 8 12 12 13 16 14 8 11 17 13 5 5 9 12 11 8 6 6 8 10 11
5 0 2 1 2 1 2 3 4 5 6 7 6 6 5 7 10 8 3 6 9 8 9 13 11 6 6 8 7 8 8 8 7 8 10 10 7 4 3 3 5 5 2 2 2 2 3 2 2 5 4 8 10 9 8 4 2 5 9 12 14 14 13 14 11 7 8 11 13 10 9 13 11 4 5 13 14 10 11 13 13 13 8 4 5 9 10 11
8 3 1 1 2 2 2 2 4 5 6 8 10 10 7 4 5 8 5 4 9 10 10 12 9 5 5 9 11 10 7 7 6 5 5 5 5 5 3 3 5 6 6 5 3 3 4 4 3 5 5 7 5 5 5 4 3 5 12 15 17 16 16 15 13 12 14 13 10 9 9 11 10 6 7 13 16 16 15 13 12 12 7 2 5 10 10 10
Wind_Direction
229 197 175 178 178 184 179 160 151 165 182 199 200 185 180 178 176 175 180 189 197 201 200 204 209 223 245 277 294 294 291 218 163 191 202 198 219 228 202 193 194 194 208 216 211 229 269 286 247 217 211 306 119 182 346 346 51 61 83 108 232 229 279 269 202 176 144 153 184 189 154 129 157 219 140 43 48 83 100 83 65 41 52 86 113 134 143 151
233 203 184 179 184 190 184 175 176 184 192 198 191 187 188 182 180 178 181 190 201 206 203 206 210 220 244 276 290 300 310 295 25 270 232 227 235 211 187 184 194 203 219 215 208 286 302 296 243 175 100 39 283 38 17 321 78 97 125 126 222 207 343 310 196 143 128 156 176 192 168 137 170 176 134 150 198 117 107 93 79 70 63 89 114 131 142 151
230 205 186 181 188 188 188 190 190 204 203 199 193 191 193 188 185 182 184 193 205 211 206 207 211 221 244 270 295 313 2 58 26 270 230 224 217 191 180 189 202 213 225 216 243 269 254 288 252 170 101 290 257 67 75 333 80 149 116 111 243 200 139 336 10 74 143 156 156 187 171 135 179 159 138 171 164 153 163 165 113 123 160 144 137 140 146 154
235 214 185 182 190 186 191 201 204 222 210 202 198 194 197 195 192 189 189 195 206 217 212 208 212 221 242 269 307 328 77 71 2 245 201 198 189 178 182 195 208 219 231 240 265 268 283 299 253 160 108 219 289 72 148 261 194 138 112 155 233 174 106 326 343 14 24 138 153 166 128 120 182 151 152 148 127 227 227 201 181 183 175 167 167 157 156 160
237 231 195 182 191 195 198 210 224 231 205 198 195 195 196 200 202 197 196 200 210 220 218 211 214 224 243 273 327 87 83 74 282 238 185 185 172 174 188 196 210 220 231 253 265 291 308 312 87 103 82 172 100 74 211 237 141 78 124 166 212 131 114 285 312 1 13 101 119 116 115 150 159 139 166 142 143 226 229 207 200 190 169 168 171 165 164 167
234 235 217 200 196 198 208 216 229 234 203 187 185 191 192 201 205 203 204 206 214 225 224 216 214 223 245 264 164 138 106 124 245 184 187 183 168 179 190 196 202 215 221 225 279 337 328 341 59 104 97 128 156 149 210 237 108 106 215 76 26 100 122 237 311 355 30 84 92 111 144 159 115 159 201 151 181 215 206 191 190 184 168 164 161 160 168 176
231 231 230 227 211 200 211 210 211 223 204 183 182 185 188 200 205 207 208 207 218 227 227 220 215 224 231 156 129 88 98 201 204 158 183 176 173 183 185 199 195 210 216 201 341 356 349 2 26 182 104 100 174 161 171 136 86 108 181 354 54 84 106 158 139 22 59 91 136 128 91 129 142 183 221 189 224 215 209 191 133 141 151 151 153 165 178 182
235 232 234 242 224 201 206 209 205 203 198 203 191 184 185 195 204 209 208 206 215 225 229 222 215 217 188 156 117 62 11 225 169 150 163 163 174 176 170 187 182 203 213 242 317 335 10 345 246 206 88 237 173 144 131 86 54 102 162 210 93 76 116 134 100 68 70 96 99 72 86 221 186 172 136 233 242 218 202 160 108 120 136 147 162 175 182 184
238 236 238 248 229 202 207 208 204 204 204 229 210 194 188 189 201 209 206 205 209 218 227 217 214 211 178 156 98 78 257 190 152 145 145 154 167 166 162 164 163 178 186 275 273 270 73 24 260 207 170 227 132 115 105 93 316 195 151 149 109 108 151 117 91 86 91 109 87 84 304 280 242 191 253 243 233 205 171 132 126 131 141 162 172 178 183 186
231 236 243 246 221 203 215 210 212 212 202 244 234 207 196 189 198 207 204 202 204 211 219 209 207 186 170 142 89 122 244 165 155 148 139 151 161 161 163 162 160 159 281 282 263 96 128 176 273 237 175 132 93 81 86 114 194 162 117 108 117 141 165 111 124 157 115 94 106 119 247 286 290 313 261 256 239 177 153 145 150 145 157 177 178 185 188 188
227 235 246 242 214 206 218 222 233 217 203 242 248 218 204 197 199 205 202 196 195 199 205 199 188 168 152 121 117 183 242 163 157 143 140 152 161 164 158 162 171 161 349 3 119 105 147 208 305 271 155 63 73 36 49 116 127 125 109 83 80 108 2 70 128 176 110 69 140 126 188 291 356 297 230 241 240 164 162 171 169 163 175 184 185 192 191 197
228 237 245 236 211 210 221 229 235 223 229 244 238 226 213 203 201 202 198 189 186 186 188 182 170 167 138 93 150 208 220 164 150 134 134 136 149 161 145 152 176 170 94 83 156 174 148 355 20 74 169 97 92 43 36 102 104 126 106 89 336 16 352 257 164 166 122 96 224 126 357 297 197 236 239 224 187 154 162 176 181 186 190 191 195 195 197 207
232 238 236 218 204 208 218 225 226 224 245 255 241 242 221 208 202 196 190 178 176 173 173 165 158 162 139 95 220 202 185 160 146 134 126 120 125 131 135 147 159 165 174 140 183 160 126 45 63 108 140 99 117 225 138 44 78 129 97 101 74 19 327 261 221 131 122 147 265 106 323 280 240 246 261 235 170 146 163 189 194 199 202 203 204 203 211 213
233 232 216 200 200 203 206 212 221 223 233 261 259 245 225 210 195 184 174 166 167 162 159 151 149 151 134 213 217 152 160 154 150 141 128 123 117 110 116 133 132 143 164 145 144 130 107 71 84 95 64 97 133 183 53 26 41 106 55 58 79 81 292 284 232 134 138 299 13 90 197 270 272 269 281 253 174 153 177 208 213 214 216 214 213 213 220 218
221 209 186 176 185 189 191 193 206 240 246 268 272 244 219 196 180 166 154 154 153 153 152 146 151 143 103 292 222 140 153 154 158 151 134 129 120 109 105 110 107 111 129 132 123 111 92 89 87 82 30 41 81 83 60 15 4 58 83 329 342 144 263 306 310 155 161 276 39 97 208 274 282 282 302 305 157 156 185 219 234 233 229 225 223 218 221 226
190 175 166 155 154 164 173 167 164 207 281 316 354 142 155 153 151 141 142 144 140 145 138 138 162 150 107 206 136 136 157 173 170 158 146 137 126 125 120 106 97 104 121 125 113 99 84 79 73 109 124 60 76 93 66 31 349 360 104 235 281 183 247 306 315 201 142 116 5 128 218 272 283 288 324 354 148 157 189 223 235 234 232 228 224 220 220 227
166 159 163 161 153 154 159 146 133 110 61 68 91 113 122 125 128 126 128 126 125 135 120 107 164 155 76 97 120 157 182 180 176 168 155 140 133 137 132 105 95 106 102 98 93 76 61 59 60 149 86 71 96 93 68 38 311 311 50 227 252 203 179 237 284 307 87 102 225 256 232 251 268 280 304 312 203 170 208 235 239 235 236 233 221 217 218 217
166 158 158 156 148 144 146 139 130 107 81 98 110 117 116 114 115 115 121 122 110 103 78 37 121 141 262 188 161 175 165 162 169 168 158 146 143 144 144 106 103 82 52 45 35 42 40 28 59 78 31 17 79 93 103 200 201 203 203 214 266 220 178 203 244 296 67 101 239 270 260 255 268 277 278 274 236 203 224 235 239 240 238 240 228 215 216 216
158 154 151 142 134 130 131 134 123 99 96 108 117 118 111 104 104 105 117 125 109 96 154 197 133 136 216 198 165 114 129 144 149 161 164 154 153 152 131 98 88 74 66 51 359 25 79 43 53 96 139 235 193 143 167 201 174 164 182 169 178 191 227 244 251 299 57 114 250 241 250 259 265 274 274 268 248 224 237 245 247 249 242 242 237 227 225 220
144 141 140 132 127 118 110 112 103 102 109 118 125 120 112 106 92 76 88 153 208 164 179 191 152 131 115 128 124 114 120 127 127 166 173 163 153 136 93 62 56 52 82 146 184 309 87 84 147 182 193 210 211 185 175 181 145 131 123 108 146 143 311 285 279 306 336 113 257 245 258 270 265 269 271 270 267 247 243 247 247 245 242 239 236 238 234 228
147 139 136 126 115 103 97 93 93 109 127 134 135 118 126 147 116 152 206 277 265 176 107 129 117 105 113 130 140 133 116 87 41 144 176 177 137 128 139 57 80 48 256 156 144 3 67 102 212 216 201 197 208 185 144 113 85 90 102 78 31 116 198 271 267 302 349 80 273 301 307 279 267 266 269 270 267 253 236 234 241 239 236 238 237 241 240 239
167 157 144 131 112 96 90 82 88 122 150 148 139 77 59 109 99 146 144 161 272 76 95 101 83 63 82 130 156 152 88 80 44 316 196 177 112 141 164 84 118 184 218 117 93 30 56 192 235 232 202 146 101 106 104 92 82 78 94 90 22 281 188 294 315 307 7 101 274 334 333 284 271 259 259 258 248 245 237 231 238 238 234 239 236 239 243 246
192 182 169 151 122 100 82 71 85 132 158 154 102 31 44 28 49 139 116 115 213 354 84 111 104 107 74 131 187 166 92 129 151 252 210 158 123 169 140 120 150 165 135 126 129 115 118 242 245 234 175 118 72 67 85 78 75 81 97 108 251 269 165 275 300 296 290 138 272 336 319 283 284 272 258 256 249 253 255 243 243 241 233 237 237 237 235 234
204 192 192 179 146 130 81 64 91 134 159 164 138 17 36 24 22 188 78 94 158 272 288 203 144 151 154 156 181 164 118 134 141 201 195 157 141 156 145 158 152 138 171 160 139 146 207 254 255 144 123 121 109 73 85 95 36 328 132 137 197 245 151 192 280 316 343 358 1 7 327 289 303 320 286 281 272 262 261 248 245 244 238 242 251 250 233 224
210 199 193 197 195 166 70 55 89 132 151 166 213 260 330 354 349 43 91 67 144 319 328 233 207 175 170 132 155 168 118 80 55 195 181 163 151 143 164 172 137 171 206 168 133 157 235 268 230 128 102 94 109 116 137 136 118 313 229 173 185 167 139 128 21 27 26 343 328 38 2 291 303 317 289 299 313 288 292 280 248 250 252 249 253 251 237 229
210 206 198 209 220 196 76 53 81 129 150 160 209 249 277 278 326 123 103 52 322 265 141 178 168 171 173 142 152 144 84 100 323 29 136 150 179 127 146 177 98 188 202 164 135 157 239 335 68 128 125 82 87 114 226 141 113 294 250 194 162 127 118 119 69 52 63 270 288 66 95 272 300 295 258 273 309 302 309 306 271 262 259 247 243 242 237 238
164 207 205 214 223 204 114 68 104 148 145 152 213 218 219 199 202 156 84 47 299 205 138 181 289 164 172 166 154 131 149 204 68 38 89 117 281 55 121 194 121 188 198 113 121 217 174 60 55 80 88 81 97 145 243 131 115 223 241 159 115 104 117 133 108 107 216 254 321 14 109 220 293 279 240 291 326 311 303 296 285 268 251 248 252 250 243 244
63 192 205 209 213 205 169 68 71 126 112 65 204 197 183 167 206 73 86 86 255 145 132 219 143 147 157 137 121 112 165 170 121 242 331 77 341 42 97 192 172 186 171 103 168 253 147 151 160 110 85 87 159 214 254 117 113 234 225 144 111 115 130 120 101 102 2 23 321 314 102 173 274 275 303 355 322 296 287 278 275 268 260 261 264 255 247 251
3 93 189 198 201 207 208 239 44 70 34 17 99 166 168 162 143 70 89 149 200 90 118 154 122 141 139 102 87 87 85 67 121 224 329 74 19 48 129 203 169 156 65 93 159 238 89 177 186 133 118 173 197 247 273 123 132 214 168 90 63 73 78 78 97 102 42 30 256 254 197 179 267 277 301 349 292 265 272 273 268 272 280 275 256 220 203 222
13 120 131 176 184 195 211 241 260 85 14 17 116 146 146 130 82 103 147 210 162 98 45 125 150 160 145 131 121 139 97 50 83 106 41 108 4 20 133 194 96 111 38 42 95 250 324 230 169 112 151 180 155 108 21 98 126 122 88 59 39 26 33 41 61 80 59 291 251 237 206 185 266 280 255 231 227 225 251 282 283 291 321 337 157 161 157 131
51 150 131 157 171 174 169 192 240 219 312 15 133 140 119 68 68 132 190 216 133 116 116 140 169 145 153 154 153 151 100 68 162 128 113 133 36 22 101 78 51 65 30 30 36 329 345 6 239 337 284 133 103 64 14 16 71 88 80 78 58 356 11 17 3 46 98 257 261 260 223 177 230 263 248 250 263 243 245 278 275 263 293 304 157 179 184 172
50 140 147 163 167 166 165 120 91 210 237 295 107 129 102 80 186 200 200 192 161 182 165 167 179 164 163 155 146 154 128 119 181 152 141 145 163 183 171 175 149 81 317 198 161 335 333 287 253 344 329 130 104 69 14 355 24 72 91 97 87 351 9 1 313 229 226 247 260 293 307 206 232 247 253 264 269 257 249 264 238 219 237 248 248 276 255 220
14 82 141 176 176 170 179 170 76 196 220 244 54 73 91 132 207 216 202 189 187 177 152 149 160 160 156 148 159 157 111 137 182 166 149 142 166 207 239 222 173 129 179 186 145 126 298 305 317 57 316 208 138 129 130 296 173 135 138 131 132 137 136 254 259 267 267 257 269 309 300 262 277 263 238 247 260 266 271 259 232 206 215 237 248 248 241 234
353 8 90 196 190 188 191 179 172 175 158 121 74 92 141 191 211 182 175 233 181 128 117 131 134 144 155 158 173 161 100 140 175 149 136 136 153 204 236 254 215 122 111 148 157 167 190 289 230 178 218 191 175 178 163 154 170 184 156 135 153 162 164 200 207 212 247 270 290 296 256 209 229 273 239 235 259 278 284 272 269 278 251 238 241 244 255 271
358 8 345 316 189 202 208 179 150 152 140 96 84 135 181 203 212 162 179 214 160 83 90 118 120 136 170 185 177 174 142 162 183 147 146 164 170 190 194 209 205 163 129 164 205 163 171 250 239 204 183 172 181 199 148 122 130 233 140 115 179 190 154 153 193 183 178 296 294 251 236 212 213 275 277 259 266 281 294 298 310 310 296 203 252 262 277 273
360 11 351 355 157 200 205 186 154 152 142 82 119 188 206 201 194 181 189 183 156 132 115 116 110 130 173 186 187 194 146 130 174 159 172 193 188 191 194 204 197 184 170 171 189 155 156 269 278 326 74 182 178 177 148 140 186 204 146 179 216 180 128 126 259 344 93 253 268 209 250 284 320 291 279 269 274 296 312 306 283 268 258 278 279 281 280 263
3 8 354 341 242 200 188 183 170 158 133 70 152 198 205 270 220 202 291 235 162 140 124 133 147 142 167 176 182 194 155 113 164 167 186 202 216 201 199 222 197 190 191 176 193 194 151 239 300 96 195 258 199 127 73 22 133 133 183 215 204 92 90 111 222 346 37 251 275 245 246 280 314 277 299 351 329 299 301 297 290 306 2 352 309 296 274 259
6 358 322 278 230 195 183 183 172 155 101 71 239 246 147 216 267 321 6 356 134 133 129 161 169 146 168 176 180 184 162 147 176 180 179 194 240 207 183 200 199 194 197 172 190 228 142 189 300 42 189 287 357 117 183 336 69 135 186 192 120 118 237 117 159 202 189 246 279 275 259 255 217 229 293 323 292 287 289 284 288 329 23 359 293 275 272 278
358 4 333 236 194 183 181 174 161 144 116 134 229 262 195 210 262 264 318 6 25 105 148 178 161 135 169 171 168 176 170 167 174 178 172 179 237 221 180 186 202 197 193 169 180 229 131 176 263 327 242 303 9 139 193 262 346 39 100 124 98 139 172 170 172 169 162 206 262 278 285 257 224 198 187 223 249 261 269 279 308 61 49 286 278 287 303 305
359 46 356 176 178 180 168 156 144 148 165 167 202 225 153 249 263 253 239 85 28 27 154 222 138 140 174 180 167 171 168 163 167 177 188 177 210 252 195 184 185 189 187 178 186 199 106 179 223 299 334 96 185 216 183 171 173 167 161 184 198 94 110 183 192 138 143 171 216 257 273 264 235 192 187 204 226 224 204 164 127 158 270 287 294 299 306 305
52 83 273 153 161 168 155 144 137 164 171 185 200 203 190 225 271 271 224 148 158 279 132 147 151 146 157 161 170 173 152 148 166 172 191 187 189 235 217 193 181 165 165 180 196 194 178 181 167 183 294 194 226 243 197 183 185 177 179 190 189 160 131 160 242 252 146 177 184 182 269 272 239 180 186 177 164 159 146 116 41 304 310 328 326 307 316 337
80 105 208 150 156 164 157 161 195 157 181 197 186 190 194 195 230 266 254 137 178 244 87 70 186 155 127 129 154 158 141 152 177 174 191 197 179 186 235 225 183 159 143 168 201 190 156 115 119 180 217 213 241 265 217 190 190 175 190 187 172 160 145 156 212 241 206 231 211 135 263 272 234 142 154 165 161 139 97 40 6 341 330 341 337 330 336 330
117 177 213 163 168 166 155 188 202 183 224 191 157 173 182 191 205 211 211 164 174 196 191 236 204 154 104 121 128 137 139 149 170 171 186 188 187 229 258 299 145 146 129 146 193 185 144 113 129 226 302 316 307 328 359 30 92 167 225 173 139 179 171 154 179 183 161 222 218 143 250 266 237 141 161 197 216 52 54 36 16 348 331 334 324 314 314 308
207 250 301 186 190 186 177 193 196 202 211 144 151 187 188 200 195 182 186 186 175 160 172 213 200 161 138 84 105 149 164 140 154 172 157 151 215 267 305 42 93 116 126 168 179 184 192 171 139 129 352 334 337 340 337 345 15 209 232 198 181 178 152 130 161 150 204 219 187 171 240 261 252 134 114 44 36 42 21 3 5 339 311 302 295 297 301 306
225 263 313 281 193 197 203 179 173 198 193 173 191 197 187 198 194 179 172 173 175 159 166 212 195 140 87 48 62 92 166 136 152 177 150 151 259 304 355 37 71 80 82 127 114 126 162 172 152 155 192 218 220 210 226 250 205 211 232 208 196 171 156 162 168 171 228 227 193 192 238 261 266 233 150 49 55 58 2 326 315 279 267 270 277 287 293 297
85 177 236 3 28 242 248 55 93 175 188 185 199 200 191 199 198 174 166 172 190 178 167 186 162 126 96 91 120 220 235 155 111 141 155 175 250 302 342 10 54 96 104 65 47 72 116 161 173 164 196 205 193 199 194 146 142 194 239 226 211 184 173 165 147 185 218 224 221 228 232 253 267 264 252 257 90 95 267 283 290 286 281 276 270 269 271 274
181 188 179 166 80 242 237 246 206 197 197 191 193 191 191 198 205 178 185 199 191 182 177 168 165 168 170 171 182 212 219 204 120 176 187 177 199 342 354 3 26 111 135 74 22 70 106 277 218 147 193 198 182 191 138 102 143 197 205 223 250 226 181 177 201 212 197 197 238 239 220 240 265 270 269 270 177 143 242 254 261 271 277 278 283 289 287 279
208 331 210 184 153 185 206 222 208 205 225 218 194 178 186 194 196 189 199 204 174 177 186 187 196 199 182 169 175 193 199 198 210 222 211 184 172 55 8 341 338 348 125 81 2 84 115 249 258 168 243 232 212 224 166 128 183 195 187 213 211 199 190 203 231 233 190 196 246 250 212 228 257 269 275 280 238 198 254 255 246 254 266 277 288 294 289 284
204 318 290 257 209 195 192 179 176 195 217 226 222 196 187 194 200 194 172 157 175 193 194 200 210 207 189 173 172 177 183 189 210 221 206 189 185 152 134 232 296 7 77 108 45 112 136 220 227 193 259 265 253 249 234 203 212 208 220 233 223 221 218 214 233 243 232 236 259 267 259 253 255 267 282 289 282 250 263 270 267 265 264 268 278 283 278 274
167 221 280 304 306 220 182 153 153 180 209 220 238 245 208 198 200 196 168 166 182 193 196 209 214 200 191 188 183 192 193 186 199 204 179 178 200 186 181 195 160 67 64 125 167 237 183 209 191 156 223 262 256 250 248 239 235 235 241 247 250 253 251 242 237 239 246 254 258 264 272 270 264 262 282 287 290 292 277 275 277 278 274 262 265 274 275 273
203 352 88 51 312 234 174 170 151 165 200 210 218 222 224 217 198 186 193 192 183 178 193 208 209 187 193 204 202 213 207 180 185 194 178 180 191 180 182 188 153 143 160 153 145 173 175 179 143 132 187 245 246 236 230 217 223 252 251 242 237 240 247 249 242 224 220 237 250 259 265 269 268 249 255 279 290 292 281 277 279 283 291 290 272 272 273 277
215 278 63 85 313 262 210 182 164 178 201 206 213 209 205 218 182 171 196 216 193 192 198 198 187 156 188 213 218 219 197 153 152 162 156 150 129 107 115 137 133 142 165 169 155 162 159 152 149 153 195 242 232 183 175 128 112 238 243 234 229 230 235 241 246 241 229 223 233 246 248 260 278 288 274 278 284 284 283 283 280 288 317 351 268 266 269 281